Regional Weather Roundup
Issued by NWS Newport/Morehead, NC

Current Version | Previous Version | Graphics & Text | Print | Product List | Glossary On
Versions: 1 2 3 4 5 6 7 8 9 10 11 12 13 14 15 16 17 18 19 20 21 22 23 24 25 26 27 28 29 30 31 32 33 34 35 36 37 38 39 40 41 42 43 44 45 46 47 48 49 50
000 ASUS42 KMHX 190622 RWRMHX WEATHER ROUNDUP FOR EASTERN NORTH CAROLINA NATIONAL WEATHER SERVICE NEWPORT/MOREHEAD CITY NC 100 AM EST FRI DEC 19 2014 NOTE: "FAIR" INDICATES FEW OR NO CLOUDS BELOW 12,000 FEET WITH NO SIGNIFICANT WEATHER AND/OR OBSTRUCTIONS TO VISIBILITY NCZ015>017-031-032-045>047-102-103-190700- NORTH COAST CITY SKY/WX TMP DP RH WIND PRES REMARKS EDENTON N/A 35 32 88 CALM 30.10R ELIZABETH CITY CLOUDY 42 35 76 CALM 30.10S KITTY HAWK CLOUDY 42 36 80 CALM 30.08R MANTEO CLOUDY 43 36 75 W3 30.09F $$ NCZ045>047-081-094-103-104-190700- CENTRAL COAST CITY SKY/WX TMP DP RH WIND PRES REMARKS FRISCO MOCLDY 35 34 96 CALM 30.09F SWANQUARTER N/A 37 N/A N/A CALM 30.06S $$ NCZ095-097-098-100-101-190700- SOUTHERN COAST CITY SKY/WX TMP DP RH WIND PRES REMARKS BEAUFORT CLOUDY 37 34 89 CALM 30.09F CEDAR ISLAND N/A 43 N/A N/A SW2 30.12S JACKSONVILLE CLOUDY 37 35 92 CALM 30.09F PINEY ISLAND CLOUDY 41 33 73 CALM 30.09F WILMINGTON CLEAR 34 33 96 S5 30.10F $$ NCZ011>013-027>030-043-044-078>080-089-090>093-098-190700- COASTAL PLAIN CITY SKY/WX TMP DP RH WIND PRES REMARKS AHOSKIE PTCLDY 32 31 95 CALM 30.11S CLINTON CLOUDY 40 37 86 CALM 30.11S ELIZABETHTOWN MOCLDY 35 32 89 CALM 30.09F GOLDSBORO PTCLDY 37 37 98 CALM 30.09F GREENVILLE CLEAR 32 32 100 CALM 30.12S HAVELOCK CLOUDY 37 34 89 CALM 30.10F KENANSVILLE PTCLDY 37 33 85 CALM 30.11S KINSTON CLEAR 34 32 94 CALM 30.11F NEW BERN MOCLDY 37 33 85 CALM 30.11S RICHLANDS CLOUDY 37 32 81 CALM 30.10S ROCKY MOUNT CLEAR 33 31 92 CALM 30.11S WASHINGTON CLEAR 32 32 97 CALM 30.10F WHITEVILLE CLEAR 36 33 88 CALM 30.10F $$ AMZ130-135-150-152-154-156-158-170-250-252-270-ANZ085-086-088-633-658-670-190700- MARINE OBSERVATIONS STATION/POSITION TIME TEMP WIND PRES WAVE SWELL AIR SEA DIR/SP/G HT/PER HT/PER (UTC) (F) (DEG/KT/KT) (MB) (FT/S) (FT/S) CHESAPEAKE LIGHT 0600 41 340/ 9/ 11 1019.8 64 E VA BEACH 0600 44 55 320/ 8/ 12 1018.1 3/ 5 2/ 5 DUCK 0600 44 48 310/ 4/ 5 1018.2 2 E DUCK 0600 48 N/A 2/ 6 10 NE DUCK 0600 51 N/A 3/ 5 OREGON INLET 0600 44 50 280/ 4/ 5 1019.0 13E OREGON INLT 0600 53 N/A 3/ 6 HATTERAS CG 0600 45 55 10/ 2/ 2 1019.0 DIAMOND BUOY 0600 47 1019.5 3/ 8 17 S OCRACOKE NOT AVBL CAPE LOOKOUT 0600 48 30/ 1/ 1 1018.6 BEAUFORT LAB 0600 43 53 CALM / 1 1017.7 30 SE NEW RIVER 0600 53 62 340/ 6/ 8 1019.5 1/ 7 2/ 7 5 SE WRIGHTSVLE 0600 48 55 30/ 4/ 4 1019.1 225 S CAPE HAT 0541 69 72 260/ 8/ 12 1017.5 3/ 5 3/ 5 41 SE CHARLESTON 0600 61 72 320/ 10/ 12 1018.7 2/ 4 2/ 4 $$

USA.gov is the U.S. government's official web portal to all federal, state and local government web resources and services.